Location: Ferchesar
(52.6477°N, 12.4298°E)
Time: 14:16:45
(UTC+02:00)

Transit 4A - Pass Details

Date: 06 March 2021
Orbit: 869 x 975 km, 66.8° (Epoch: 16 April)

Event Time Altitude Azimuth Distance (km) Brightness Sun altitude
Rises 12:40:10 0° 266° (W) 3,653 11.1 31.7°
Reaches altitude 10° 12:43:08 10° 278° (W) 2,696 10.4 31.7°
Maximum altitude 12:48:31 29° 337° (NNW) 1,674 9.1 31.6°
Drops below altitude 10° 12:53:48 10° 36° (NE) 2,642 9.9 31.5°
Sets 12:56:41 0° 48° (NE) 3,568 10.5 31.4°
